Location: *
(2.5500°S, 65.9667°W)
Time: 14:06:50
(UTC+00:00)

Cosmos 2084 - Pass Details

Date: 24 May 2022
Orbit: 506 x 671 km, 62.8° (Epoch: 30 June)

Event Time Altitude Azimuth Distance (km) Brightness Sun altitude
Rises 09:20:48 0° 181° (S) 2,760 6.7 -14.9°
Reaches altitude 10° 09:23:31 10° 164° (SSE) 1,828 5.9 -14.3°
Maximum altitude 09:26:35 20° 116° (ESE) 1,270 5.7 -13.6°
Drops below altitude 10° 09:29:32 10° 67° (ENE) 1,760 7.4 -12.9°
Sets 09:32:05 0° 50° (NE) 2,623 8.3 -12.3°
